Lid_Strength_Index
15 15 16 16 16 15 15 13 13 12 13 11 10 10 9 7 8 7 5 5 5 4 4 3 3 3 3 2 2 2 2 2 2 2 1 1 1 1 1 1 1 1 1 1
17 16 16 17 15 13 13 12 13 13 12 11 11 8 8 7 8 6 5 5 5 4 4 4 3 3 3 3 2 2 2 2 2 2 2 2 1 1 1 1 1 1 1 1
20 15 14 15 13 13 11 11 12 14 12 10 10 9 9 8 7 6 5 5 5 4 4 3 3 3 3 3 2 2 2 2 2 2 2 2 1 1 2 2 1 1 1 1
20 16 19 13 11 11 11 11 11 11 9 9 9 8 7 6 7 7 6 5 4 4 3 3 3 3 3 2 2 2 3 2 2 2 2 2 2 2 2 1 2 2 1 1
19 16 13 12 13 13 13 13 11 11 9 8 7 7 8 8 5 6 6 5 5 4 4 3 3 3 3 3 2 3 3 3 2 2 2 2 2 2 2 2 2 2 1 1
17 18 20 14 12 10 10 15 11 12 11 10 8 12 11 10 7 7 5 4 4 4 4 4 4 3 3 3 3 3 3 2 2 2 2 2 2 2 2 2 2 1 2 1
17 17 15 12 12 10 16 16 12 12 13 11 11 11 11 10 12 9 9 7 4 4 4 4 4 3 3 3 3 3 2 2 2 2 2 2 2 2 2 2 2 2 2 1
15 17 19 12 11 15 14 13 12 13 12 12 11 10 10 11 11 12 11 9 8 5 4 3 3 3 4 4 3 2 2 2 2 2 2 2 2 2 2 2 2 2 2 2
17 15 12 11 10 11 12 13 12 13 12 12 11 11 11 11 11 11 11 11 8 8 8 6 4 3 4 3 2 2 3 3 2 2 2 2 2 2 2 2 3 3 3 3
16 13 14 13 11 11 11 11 11 11 11 12 12 11 11 11 11 10 11 11 11 7 7 7 7 5 3 2 2 2 3 3 3 3 3 2 2 2 2 3 3 3 3 3
15 13 12 11 11 11 11 10 10 10 10 11 12 11 11 11 10 10 10 11 10 10 7 7 6 7 5 3 3 3 3 3 3 3 4 3 4 5 2 2 3 3 3 2
15 12 13 13 11 10 11 11 10 10 10 10 10 11 11 11 10 10 10 9 8 8 6 7 7 6 5 3 2 3 3 3 3 3 3 4 6 9 16 17 17 17 16 8
11 9 10 10 10 9 10 11 10 9 9 10 11 10 10 11 10 9 9 8 8 7 6 5 5 7 7 4 2 3 4 3 3 4 4 6 7 7 7 12 17 19 19 17
9 9 10 10 11 9 10 9 9 8 9 9 10 10 9 11 11 10 9 9 8 7 7 6 6 5 4 4 2 2 3 6 3 3 3 4 6 6 7 8 8 8 16 17
8 8 9 8 8 8 8 8 9 10 9 9 10 10 10 10 11 10 9 9 8 8 8 8 6 5 4 3 3 2 2 3 3 3 3 3 4 6 7 8 8 9 10 13
7 8 9 9 9 8 9 9 10 11 10 10 10 10 10 10 11 11 10 10 10 10 9 9 7 5 4 3 2 2 2 4 5 4 4 3 3 4 7 8 9 10 9 8
9 10 9 9 9 9 9 8 8 7 8 8 9 10 10 9 10 9 9 9 9 9 9 8 6 4 4 4 3 2 2 2 4 4 4 4 3 3 5 7 8 8 8 9
7 7 8 8 8 8 8 9 9 8 8 7 7 7 9 10 9 9 8 7 8 7 6 6 6 6 5 4 3 2 2 2 3 3 4 4 3 4 6 6 8 8 9 11
7 8 7 8 8 8 8 8 9 9 9 7 8 8 9 9 9 8 8 9 9 9 8 6 5 5 6 5 4 4 2 3 3 4 5 7 6 7 7 7 8 8 8 9
7 7 7 7 7 8 8 8 7 8 9 9 9 9 10 9 10 10 9 10 9 9 7 6 6 6 7 6 3 4 3 3 4 6 6 5 6 7 9 11 9 8 8 8
6 7 7 7 8 8 7 7 8 8 8 8 10 10 10 10 10 9 10 10 10 8 8 7 6 6 6 7 7 6 6 6 4 6 6 7 8 8 8 8 9 9 11 12
6 5 6 7 7 7 7 6 7 7 7 7 8 9 9 10 10 10 9 10 8 8 9 9 9 6 7 7 8 8 9 10 9 9 10 9 10 11 11 12 11 12 12 13
5 5 5 5 6 7 6 7 7 7 8 7 7 8 9 9 9 9 10 9 9 8 9 9 9 8 7 7 7 8 8 10 11 11 12 13 14 14 14 15 14 14 13 13
6 5 5 5 5 5 8 8 7 7 7 7 7 7 7 9 9 7 8 7 7 8 9 8 8 8 8 8 8 8 8 10 10 10 11 12 13 13 15 15 15 15 15 15
8 8 8 7 7 6 6 6 7 8 9 9 8 8 8 8 9 9 7 8 8 8 8 8 8 9 9 9 9 9 9 10 11 11 11 13 14 14 14 14 15 14 14 15
9 10 10 9 9 10 9 8 9 9 10 11 10 10 10 8 7 7 8 8 9 8 8 8 8 9 9 9 9 10 11 11 11 11 12 12 13 13 13 14 14 14 14 15
10 8 10 9 10 9 9 9 10 9 8 9 10 10 10 9 9 9 9 10 10 9 9 9 9 9 9 9 10 11 11 12 13 12 12 11 12 12 14 14 14 14 15 15